This is the latest recevied weather packets stored in our database for station/object K7AZM. If no packets are shown the sender has not sent any weather packets the latest 10 day(s).
| Time | Temp. | Humidity | Pressure | Rain* | Wind** | Luminosity | Snow |
|---|---|---|---|---|---|---|---|
| 1777652723 | 24.44° C | 34% | 1014.2 hPa | 0 mm | - | - | - |
| 1777647645 | 23.33° C | 37% | 1013.6 hPa | 0 mm | - | - | - |
| 1777646744 | 22.78° C | 38% | 1013.4 hPa | 0 mm | - | - | - |
| 1777644623 | 21.11° C | 39% | 1013.1 hPa | 0 mm | - | - | - |
| 1777643125 | 18.89° C | 42% | 1012.5 hPa | 0 mm | - | - | - |
| 1777641025 | 16.67° C | 44% | 1012 hPa | 0 mm | - | - | - |
| 1777639825 | 16.67° C | 44% | 1011.6 hPa | 0 mm | - | - | - |
| 1777638323 | 16.67° C | 44% | 1011.2 hPa | 0 mm | - | - | - |
| 1777637765 | 16.67° C | 44% | 1011.3 hPa | 0 mm | - | - | - |
| 1777634423 | 17.78° C | 42% | 1010.9 hPa | 0 mm | - | - | - |
| 1777629923 | 19.44° C | 39% | 1010.3 hPa | 0 mm | - | - | - |
| 1777627523 | 20° C | 38% | 1010.5 hPa | 0 mm | - | - | - |
| 1777627223 | 20° C | 38% | 1010.5 hPa | 0 mm | - | - | - |
| 1777626325 | 20.56° C | 36% | 1010.6 hPa | 0 mm | - | - | - |
| 1777625723 | 21.11° C | 35% | 1010.6 hPa | 0 mm | - | - | - |
| 1777625423 | 21.11° C | 35% | 1010.6 hPa | 0 mm | - | - | - |
| 1777624823 | 21.11° C | 35% | 1010.6 hPa | 0 mm | - | - | - |
| 1777623965 | 21.11° C | 34% | 1010.3 hPa | 0 mm | - | - | - |
| 1777623023 | 21.67° C | 32% | 1010.5 hPa | 0 mm | - | - | - |
| 1777620043 | 23.33° C | 27% | 1010.8 hPa | 0 mm | - | - | - |
| 1777618542 | 23.33° C | 27% | 1010.2 hPa | 0 mm | - | - | - |
| 1777617622 | 23.33° C | 25% | 1010 hPa | 0 mm | - | - | - |
| 1777614622 | 24.44° C | 23% | 1009.1 hPa | 0 mm | - | - | - |
| 1777613721 | 25° C | 23% | 1008.9 hPa | 0 mm | - | - | - |
| 1777610423 | 26.11° C | 19% | 1008.1 hPa | 0 mm | - | - | - |
* Rain latest hour (hover to see other rain measurements)
** Current wind speed in m/s (hover to see current wind gust speed)